Theta_e
297 296 296 295 295 295 295 294 293 292 292 292 291 291 290 290 289 289 289 289 288 288 288 288 288 288 288 288 288 288 288 289 291 291 292 292 292 292 292 291 291 292 292
295 295 294 294 294 293 292 291 291 290 290 289 289 288 288 287 287 287 287 287 286 286 286 286 286 286 286 286 286 286 286 286 287 288 288 289 289 289 289 289 289 289 290
294 294 293 293 292 292 291 290 289 289 288 287 287 286 286 285 285 285 285 285 284 284 284 284 284 284 283 284 284 284 284 285 285 285 286 286 287 287 287 287 287 288 288
292 292 292 291 290 289 288 287 287 286 286 285 284 284 283 283 284 284 284 284 283 283 282 282 282 282 282 283 283 283 283 284 284 284 285 285 286 286 285 285 285 286 286
292 291 290 289 288 287 286 285 284 284 283 283 283 283 283 282 283 283 283 282 282 281 281 281 281 281 282 282 282 282 283 283 284 284 284 285 285 285 285 285 284 284 285
290 289 288 287 286 284 284 283 283 283 283 282 282 282 282 281 282 282 282 281 280 280 280 280 280 281 281 281 282 282 283 283 282 283 284 284 285 285 284 284 284 282 281
288 287 285 284 283 283 282 282 282 281 281 281 281 281 280 279 280 281 281 280 280 280 279 279 280 280 280 280 281 282 282 282 282 282 283 283 283 283 283 282 281 281 282
286 285 284 283 282 281 281 281 280 280 280 280 279 279 279 278 279 280 281 279 279 279 279 279 279 279 279 280 281 281 281 281 281 282 282 282 282 283 283 281 281 281 281
284 283 281 281 281 280 280 280 279 279 279 278 278 278 278 277 278 279 279 279 278 279 279 278 278 278 278 279 279 279 279 280 280 282 282 282 282 283 284 282 280 280 280
282 281 281 280 280 279 279 278 278 278 277 278 278 277 276 276 276 278 279 278 278 278 277 277 277 277 278 278 277 278 278 278 279 281 280 279 280 280 281 280 279 277 278
282 281 280 280 279 278 278 277 277 276 276 276 277 277 276 275 275 276 277 277 278 278 277 276 275 276 276 276 276 275 276 277 278 277 276 277 278 279 278 277 276 275 275
281 280 280 279 278 277 277 276 276 276 275 276 276 276 275 275 274 275 276 277 277 277 276 275 275 275 274 273 273 274 275 274 273 273 274 276 276 276 275 274 274 273 273
280 280 278 277 276 276 275 275 275 274 274 274 274 274 274 274 274 274 275 275 275 276 275 275 273 271 271 270 271 272 271 271 271 271 273 274 274 273 272 272 272 271 271
279 277 276 276 275 275 275 275 274 274 274 273 274 273 273 272 273 274 274 274 275 274 273 271 269 268 268 268 268 268 269 269 270 271 271 271 271 271 270 270 270 270 270
277 276 276 275 275 274 274 274 274 273 273 273 273 273 272 272 272 274 274 274 275 273 271 268 266 265 265 266 266 267 268 268 269 269 269 269 270 269 269 269 268 268 268
276 276 275 274 274 273 274 275 274 273 272 272 273 272 271 272 273 273 273 273 272 270 267 264 263 263 263 264 265 266 267 267 268 268 268 269 269 269 268 268 267 267 266
276 275 274 274 273 273 273 273 274 274 272 271 270 270 270 270 271 271 272 270 267 266 264 263 262 262 262 263 263 265 265 266 266 267 267 267 268 268 267 267 266 266 266
276 275 274 273 272 272 271 271 271 270 271 271 270 268 268 268 269 270 268 266 266 265 263 262 261 262 262 261 262 263 264 264 265 265 265 266 266 266 266 266 266 266 266
275 274 273 272 272 271 270 270 269 269 269 269 270 270 269 267 267 266 265 264 263 262 262 261 261 261 261 261 261 262 262 263 264 264 264 265 265 265 265 265 265 265 265
275 273 272 272 271 270 270 269 269 269 268 267 268 267 267 265 265 265 264 263 262 261 261 261 261 260 260 260 260 261 261 262 263 263 263 264 264 264 264 264 264 264 264
273 272 271 271 270 270 270 269 269 268 267 266 267 266 265 265 264 263 262 262 261 261 261 261 260 260 259 259 259 260 260 260 261 262 262 263 263 263 263 263 263 263 263
272 271 271 270 270 270 269 268 267 266 266 266 266 265 264 264 263 262 262 262 262 261 261 260 260 260 260 259 259 259 259 260 260 261 261 262 262 262 262 262 262 262 262
271 271 270 270 269 269 268 268 267 266 266 266 265 264 264 263 263 262 262 262 262 262 261 260 260 260 260 259 259 259 259 259 260 260 261 261 262 261 261 261 261 261 261
271 270 270 269 269 268 268 267 267 266 265 265 264 264 263 262 262 262 262 262 262 262 261 260 260 260 260 259 259 260 260 260 260 260 261 261 261 261 261 261 261 261 261
270 270 269 269 268 268 267 267 266 266 265 264 264 263 263 262 262 263 263 262 262 261 261 261 260 260 260 260 260 260 260 260 261 261 261 261 261 261 261 260 260 260 260
269 269 269 268 267 267 266 266 266 265 264 264 263 262 262 262 262 263 263 262 261 261 261 261 261 261 260 260 260 260 260 260 261 262 262 261 261 261 260 260 260 260 259
Wind_Speed
13 12 12 11 10 10 11 11 13 14 16 18 19 20 21 21 21 20 21 22 24 25 25 26 26 25 25 25 22 19 19 18 17 42 30 32 35 35 35 34 32 31 29
11 10 10 9 9 10 13 14 16 18 18 19 19 19 20 20 20 22 23 25 26 27 27 28 28 28 28 27 26 25 23 22 22 29 33 31 30 33 37 35 32 31 29
8 7 8 9 10 12 14 16 16 16 17 17 17 19 20 20 19 22 24 26 26 25 27 26 26 26 26 27 27 24 24 22 23 25 35 30 30 30 32 33 33 29 26
5 6 8 10 12 13 13 13 14 15 16 16 17 18 19 19 18 22 23 23 25 26 27 26 27 26 22 22 21 21 21 23 22 23 26 30 26 26 27 26 26 26 29
4 6 8 9 9 10 10 11 12 14 15 16 17 17 18 19 19 20 22 25 26 25 24 26 25 25 22 22 22 24 25 25 24 25 26 28 27 25 20 25 25 25 30
4 6 7 7 8 9 10 11 12 13 14 15 16 18 19 19 19 20 20 24 25 23 23 24 25 22 25 25 25 26 26 27 28 25 25 24 29 26 23 22 20 15 4
3 5 6 7 8 10 10 12 12 13 13 15 16 18 19 19 18 19 20 22 22 23 23 25 24 23 25 27 29 30 30 27 27 29 29 28 30 28 24 21 21 19 20
2 4 6 7 7 8 9 10 11 13 14 16 16 17 18 19 17 18 20 21 19 22 23 25 26 28 27 32 36 34 34 32 32 31 28 32 34 36 32 26 22 22 25
2 4 5 6 7 7 9 10 12 13 14 15 14 15 16 18 17 19 22 21 21 22 22 25 26 28 30 34 38 38 41 38 34 30 29 31 35 36 28 20 20 14 11
3 4 5 5 6 7 9 10 11 11 11 12 12 12 14 17 18 19 21 22 20 22 24 24 25 28 33 37 37 35 36 40 40 37 34 33 31 36 27 26 22 13 9
5 5 5 5 6 7 8 8 9 9 9 10 12 13 16 18 20 18 20 21 24 25 25 26 27 30 36 36 35 31 33 41 41 34 34 32 30 32 27 22 16 12 10
6 5 5 5 5 6 6 5 6 7 9 11 15 17 19 21 20 18 21 21 25 26 26 28 31 37 37 36 33 34 35 34 31 31 29 27 25 26 25 16 12 10 9
6 5 5 5 6 5 6 6 6 7 9 13 16 18 22 24 23 21 24 25 26 27 26 31 33 36 35 34 32 32 34 28 29 26 24 24 22 20 15 9 7 7 8
6 7 7 6 6 5 5 6 7 8 8 13 15 17 20 23 23 24 26 29 28 25 29 33 33 31 27 26 31 31 29 27 27 24 23 26 21 14 10 8 7 9 12
8 8 7 6 5 5 5 6 8 7 7 12 12 14 18 21 21 22 25 27 27 29 31 33 34 29 26 27 29 28 29 28 27 26 24 22 19 14 10 10 9 10 8
10 8 7 6 5 6 8 8 5 5 7 6 6 10 16 14 18 22 24 24 27 25 24 29 25 24 23 26 27 28 28 27 26 26 22 20 17 15 12 10 9 10 12
10 9 8 7 6 6 7 10 15 11 9 5 8 12 11 16 19 22 21 26 22 20 25 26 23 23 25 25 25 25 27 27 27 23 21 20 19 17 14 12 11 10 11
11 10 8 7 6 6 7 7 10 13 19 21 17 16 14 19 20 19 25 26 32 30 27 26 27 27 27 26 25 25 27 26 25 23 23 23 20 18 16 15 13 10 9
12 11 9 7 7 6 6 7 9 11 14 19 22 21 22 22 18 20 22 23 25 27 29 29 28 28 27 28 25 25 25 24 25 24 25 23 21 18 17 14 12 9 6
12 11 9 8 7 7 8 8 9 12 15 17 19 21 23 23 26 27 24 22 22 24 26 28 29 27 27 28 26 24 25 24 23 23 24 23 21 18 16 14 11 8 5
11 10 10 9 8 8 9 9 11 13 15 17 19 19 16 19 22 22 24 24 23 23 25 27 28 29 28 27 26 25 25 25 24 23 24 23 20 18 14 11 8 5 3
12 11 11 10 9 9 9 10 11 13 15 18 19 20 18 20 21 21 22 23 23 23 23 24 26 28 27 26 25 26 25 26 26 24 24 22 19 15 12 9 5 2 2
13 12 11 10 9 9 10 10 11 13 15 17 19 21 21 21 21 22 23 23 23 24 24 23 25 26 26 25 24 23 24 24 23 20 21 20 17 13 9 6 3 1 3
13 12 10 9 10 10 10 11 12 13 16 18 19 20 21 22 22 23 23 24 24 24 24 24 24 24 24 24 24 24 22 21 19 19 17 15 13 10 8 5 2 3 5
11 10 10 10 10 10 10 11 13 15 18 19 21 22 23 23 24 25 25 25 25 26 26 25 25 25 24 24 23 22 20 17 15 13 15 13 11 8 6 4 3 5 7
10 10 10 10 9 9 10 12 15 17 19 21 23 24 25 25 26 27 28 28 27 27 28 27 26 25 24 24 22 20 18 17 15 16 13 12 9 7 5 4 4 5 7
Wind_Direction
97 93 87 73 57 40 27 13 5 359 359 358 359 358 358 358 358 357 356 354 352 350 349 345 342 341 336 333 328 317 304 289 271 288 291 301 302 305 311 312 309 306 300
102 96 80 62 38 20 14 10 7 5 4 4 2 1 1 0 0 0 359 357 355 353 351 348 345 343 339 338 333 325 318 308 287 289 299 300 299 303 307 309 310 307 301
108 83 60 39 22 15 10 8 6 4 3 2 1 3 2 3 3 4 3 359 358 358 354 350 347 345 340 339 336 329 321 314 303 288 295 302 301 306 310 311 312 309 302
92 58 34 21 17 14 12 9 6 6 4 7 9 9 10 9 9 6 0 356 355 353 351 351 350 345 338 337 332 327 324 318 313 305 299 302 305 307 309 314 313 313 311
78 44 32 25 16 11 8 10 12 12 14 12 9 9 8 9 11 360 355 352 353 353 351 348 346 341 336 333 327 328 325 318 313 307 303 305 306 307 305 309 301 306 307
54 40 28 19 13 13 15 14 12 13 13 11 11 9 7 8 4 1 356 348 351 354 347 344 348 341 336 331 325 321 318 316 312 306 301 303 302 303 297 295 300 307 306
43 30 20 13 14 14 12 10 12 12 10 9 9 4 5 7 2 357 353 347 352 350 345 341 338 337 332 334 328 323 314 309 303 299 298 295 297 297 293 289 288 281 276
28 5 2 3 7 8 7 4 5 5 6 5 3 3 3 3 358 356 351 352 350 346 346 343 339 335 337 334 329 323 318 312 304 298 287 298 296 291 286 280 280 286 287
348 344 345 350 355 356 357 356 360 0 359 1 0 1 0 2 357 357 355 351 346 343 342 339 338 335 335 335 331 324 317 313 311 300 292 300 302 301 272 264 271 278 287
293 317 326 329 338 345 345 351 356 354 351 352 355 1 5 1 3 357 356 349 339 338 337 335 336 334 332 331 329 323 316 312 314 310 312 308 304 305 269 262 269 254 272
291 294 299 323 334 334 339 344 338 342 347 354 357 360 5 6 2 355 352 347 341 336 332 330 330 331 329 328 328 323 316 314 314 313 310 307 300 297 279 268 266 268 261
265 281 308 313 316 318 313 312 327 339 350 359 359 356 359 358 359 353 347 345 339 332 330 327 326 327 328 329 330 328 327 323 320 315 310 303 302 294 293 272 270 271 272
266 293 289 279 280 282 301 328 340 347 358 5 3 354 347 347 350 354 351 340 336 330 328 324 324 328 329 331 333 334 336 333 327 320 315 317 316 308 296 279 286 295 296
261 253 252 257 265 286 315 326 335 342 357 3 356 348 340 337 346 352 338 335 333 331 331 325 328 330 332 330 334 338 337 333 328 323 321 322 323 319 311 307 311 320 312
243 248 254 273 290 301 314 328 333 342 348 337 337 336 336 330 336 331 329 328 329 330 323 327 338 340 337 338 338 337 335 336 334 333 329 330 330 328 326 326 323 319 299
246 254 258 267 279 296 314 322 337 327 331 326 320 328 327 321 323 326 328 328 327 330 329 341 335 335 335 335 332 330 332 332 332 331 330 333 333 335 330 325 316 307 301
246 252 258 267 279 295 312 327 333 333 339 328 331 332 330 328 331 332 331 330 333 337 344 342 335 332 331 330 324 326 325 327 329 331 331 333 335 333 331 323 315 303 296
249 255 258 263 275 289 303 316 323 327 328 329 337 340 338 339 337 337 335 331 342 344 343 340 337 337 332 322 319 320 323 326 330 332 335 337 337 333 328 325 319 298 288
246 252 255 257 267 276 285 299 307 311 314 316 323 333 340 340 337 333 338 343 339 336 338 337 339 337 326 322 318 317 320 322 326 331 337 338 336 332 327 325 316 302 293
242 242 244 252 259 267 276 290 300 303 305 312 323 334 334 341 327 335 337 337 337 333 334 334 334 330 323 325 322 319 320 324 326 330 333 335 334 331 326 324 319 302 295
237 234 237 246 254 265 279 287 294 298 305 314 323 328 328 319 324 327 330 333 335 335 335 333 328 328 328 327 325 321 321 322 325 328 332 334 332 329 328 323 320 311 256
228 227 235 242 251 263 274 281 288 296 307 314 321 326 329 327 325 326 328 331 333 333 332 327 323 324 326 327 326 322 319 320 325 330 332 332 330 327 324 322 320 306 192
216 222 230 240 252 262 268 277 288 298 308 315 320 322 325 324 325 327 328 332 332 330 328 325 322 323 326 324 324 322 319 318 319 324 324 326 326 324 320 313 300 178 170
213 220 229 241 251 259 271 284 294 303 309 312 316 319 321 323 324 326 329 330 328 325 324 325 323 323 324 323 322 321 319 317 316 313 316 319 320 319 310 299 262 178 157
212 222 236 243 249 256 272 290 302 309 312 316 318 318 320 322 324 327 328 327 325 322 322 324 324 325 322 321 320 319 318 317 316 319 326 319 313 311 295 272 225 177 168
217 226 232 237 249 271 289 299 306 310 313 316 317 318 320 322 324 325 324 323 322 320 320 321 322 324 322 319 318 318 320 320 321 316 307 321 310 302 278 247 209 188 176